Regional Weather Roundup
Issued by NWS

Home | Current Version | Previous Version | Text Only | Print | Product List | Glossary Off
Versions: 1 2 3 4 5 6 7 8 9 10 11 12 13 14 15 16 17 18 19 20 21 22 23 24 25 26 27 28 29 30 31 32 33 34 35 36 37 38 39 40 41 42 43 44 45 46 47 48 49 50

000
ASUS43 KFSD 221002
RWRSD

WEATHER ROUNDUP FOR SOUTH DAKOTA
NATIONAL WEATHER SERVICE SIOUX FALLS SD
500 AM CDT TUE JUL 22 2014

NOTE: "FAIR" INDICATES FEW OR NO CLOUDS BELOW 12,000 FEET WITH NO
SIGNIFICANT WEATHER AND/OR OBSTRUCTIONS TO VISIBILITY.


SDZ001>005-009-010-012>017-221100-
NORTHWEST AND NORTH CENTRAL SOUTH DAKOTA

CITY           SKY/WX    TMP DP  RH WIND       PRES   REMARKS
BUFFALO          N/A     62  60  93 N9        30.08R
FAITH            N/A     62  59  90 N6        30.10R
MOBRIDGE       CLOUDY    64  63  96 N10       30.03R
$$

SDZ012>016-024>037-041>051-057-063-072>074-221100-
SOUTHWEST AND SOUTH CENTRAL SOUTH DAKOTA

CITY           SKY/WX    TMP DP  RH WIND       PRES   REMARKS
RAPID CTY ARPT MOCLDY    63  61  93 S5        30.14R
PIERRE         PTCLDY    65  63  93 N14       30.03R
CUSTER         MOCLDY    61  55  81 NW6       30.28R
PHILIP         CLEAR     64  62  93 NW7       30.10R
PINE RIDGE     CLEAR     64  60  87 NE7       30.12F
WINNER         FAIR      66  63  90 W7        30.05R
$$

SDZ004>011-016>023-039-040-221100-
NORTHEAST SOUTH DAKOTA

CITY           SKY/WX    TMP DP  RH WIND       PRES   REMARKS
ABERDEEN       PTCLDY    63  62  97 NW7       30.02R
WATERTOWN      MOCLDY    67  63  87 NW15      30.02R
SISSETON         N/A     65  64  97 N14       29.96R
$$

SDZ017-020-022-023-036>040-048>070-221100-
SOUTHEAST SOUTH DAKOTA

CITY           SKY/WX    TMP DP  RH WIND       PRES   REMARKS
SIOUX FALLS    PTCLDY    71  64  78 W5        29.95R
HURON          LGT RAIN  67  64  90 E17       29.89F
CHAMBERLAIN    MOCLDY    66  63  90 SE6       29.98R
MITCHELL       LGT RAIN  68  65  90 N10       30.02F
YANKTON        PTCLDY    73  64  73 N29G39    29.96R
$$

ABBREVIATIONS USED IN REMARKS
   TC - TEMPERATURE IN CELSIUS
  WCI - WIND CHILL INDEX
   HX - HEAT INDEX
  VSB - VISIBILITY



USA.gov is the U.S. government's official web portal to all federal, state and local government web resources and services.